This is the latest recevied weather packets stored in our database for station/object KC3AWA. If no packets are shown the sender has not sent any weather packets the latest 10 day(s).
| Time | Temp. | Humidity | Pressure | Rain* | Wind** | Luminosity | Snow |
|---|---|---|---|---|---|---|---|
| 1777857271 | 10.56° C | 52% | 1013.4 hPa | 0 mm | - | 0 W/m² | - |
| 1777856966 | 10.56° C | 51% | 1013.2 hPa | 0 mm | - | 0 W/m² | - |
| 1777856662 | 10.56° C | 52% | 1013.2 hPa | 0 mm | - | 0 W/m² | - |
| 1777856359 | 10.56° C | 48% | 1013.3 hPa | 0 mm | - | 0 W/m² | - |
| 1777856055 | 11.11° C | 52% | 1013.3 hPa | 0 mm | - | 0 W/m² | - |
| 1777855753 | 11.11° C | 49% | 1013.2 hPa | 0 mm | - | 0 W/m² | - |
| 1777855451 | 11.67° C | 47% | 1013.2 hPa | 0 mm | - | 0 W/m² | - |
| 1777855148 | 11.67° C | 48% | 1013.2 hPa | 0 mm | - | 0 W/m² | - |
| 1777854844 | 11.67° C | 46% | 1013.3 hPa | 0 mm | - | 0 W/m² | - |
| 1777854540 | 11.67° C | 51% | 1013.2 hPa | 0 mm | - | 1 W/m² | - |
| 1777854238 | 12.22° C | 45% | 1013.2 hPa | 0 mm | - | 2 W/m² | - |
| 1777853935 | 12.22° C | 45% | 1013.2 hPa | 0 mm | - | 3 W/m² | - |
| 1777853632 | 12.22° C | 46% | 1013.1 hPa | 0 mm | - | 5 W/m² | - |
| 1777853329 | 12.22° C | 46% | 1013.2 hPa | 0 mm | - | 7 W/m² | - |
| 1777853026 | 12.22° C | 46% | 1013.2 hPa | 0 mm | - | 9 W/m² | - |
| 1777852724 | 12.78° C | 45% | 1013.3 hPa | 0 mm | - | 12 W/m² | - |
| 1777852421 | 12.78° C | 43% | 1013.2 hPa | 0 mm | - | 13 W/m² | - |
| 1777852118 | 12.78° C | 43% | 1013.2 hPa | 0 mm | - | 17 W/m² | - |
| 1777851816 | 12.78° C | 43% | 1013.1 hPa | 0 mm | - | 20 W/m² | - |
| 1777851514 | 12.78° C | 43% | 1013.2 hPa | 0 mm | - | 24 W/m² | - |
| 1777851209 | 12.78° C | 42% | 1013.1 hPa | 0 mm | - | 32 W/m² | - |
| 1777850906 | 12.78° C | 43% | 1013.2 hPa | 0 mm | - | 38 W/m² | - |
| 1777850603 | 12.78° C | 44% | 1013.2 hPa | 0 mm | - | 44 W/m² | - |
| 1777850301 | 13.33° C | 41% | 1013.4 hPa | 0 mm | - | 47 W/m² | - |
| 1777849998 | 13.33° C | 43% | 1013.1 hPa | 0 mm | - | 49 W/m² | - |
* Rain latest hour (hover to see other rain measurements)
** Current wind speed in m/s (hover to see current wind gust speed)